[[{"header":{"parameterUnit":"m.s-1","parameterCategory":2,"la1":30.2991,"la2":30.254,"lo1":-89.0895,"lo2":-89.0444,"dy":0.0017,"dx":0.0017,"nx":28,"ny":28,"refTime":"2024-06-06T21:00:00:Z","depth":"0","parameterNumber":2,"parameterNumberName":"U-component_of_CURRENTS"},"data":[0,0,0,0,0,0,0,0,0,0,0,0,0,0,0,0,0,0,0,0,0,0,0,0,0,0,0,0,0,0,0,0,0,0,0,0,0,0,0,0,0,0,0,0,0,0,0,0,0,0,0,0,0,0,0,0,0,0,-0.2116,-0.2117,0,-0.2168,-0.2169,-0.2169,-0.2151,-0.215,-0.2149,-0.2148,-0.2166,-0.2167,-0.2168,0,0,0,0,0,0,0,0,0,0,0,0,0,-0.2017,-0.2018,-0.2116,-0.2117,-0.2118,-0.2168,-0.2169,-0.2169,-0.2151,-0.215,-0.2149,-0.2148,-0.2165,-0.2167,-0.2168,0,0,0,0,0,0,0,0,0,0,0,0,0,-0.2062,-0.2019,-0.2116,-0.2116,-0.2117,-0.2168,-0.2169,-0.2169,-0.2152,-0.215,-0.2149,-0.2147,-0.2165,-0.2167,-0.2169,-0.2211,0,0,-0.2175,-0.2176,0,0,0,0,0,0,0,0,-0.2059,-0.2065,-0.2115,-0.2116,-0.2117,-0.2153,-0.214,-0.2182,-0.2152,-0.2137,-0.2148,-0.2147,-0.2161,-0.2163,-0.2174,-0.2211,-0.2212,-0.2175,-0.2176,-0.2177,-0.2178,0,0,0,0,0,0,0,-0.2056,-0.2063,-0.2135,-0.2117,-0.2118,-0.2119,-0.2124,-0.2148,-0.2154,-0.2138,-0.2137,-0.2146,-0.216,-0.2172,-0.2174,-0.2212,-0.2175,-0.2177,-0.2178,-0.2179,-0.2293,-0.2295,0,0,0,0,0,0,-0.2054,-0.206,-0.2133,-0.2137,-0.2086,-0.2122,-0.2127,-0.2142,-0.2155,-0.2156,-0.2147,-0.2145,-0.2169,-0.2172,-0.2175,-0.2207,-0.2177,-0.2179,-0.218,-0.2291,-0.2294,-0.2296,0,0,0,0,0,0,-0.2052,-0.2061,-0.2131,-0.21,-0.2109,-0.2125,-0.2142,-0.2144,-0.2151,-0.2163,-0.2163,-0.2152,-0.2168,-0.2172,-0.2195,-0.2208,-0.218,-0.2182,-0.2289,-0.2292,-0.2295,-0.2283,0,0,0,0,0,0,-0.2049,-0.206,-0.2066,-0.2101,-0.2111,-0.2162,-0.2144,-0.2146,-0.216,-0.2157,-0.2167,-0.2167,-0.2167,-0.2192,-0.2197,-0.221,-0.2184,-0.2287,-0.2291,-0.2294,-0.2281,-0.2285,-0.2288,0,0,0,0,0,-0.2046,-0.2063,-0.2066,-0.2075,-0.2121,-0.2163,-0.2169,-0.2173,-0.2161,-0.2172,-0.2176,-0.2167,-0.2217,-0.2194,-0.22,-0.2214,-0.2285,-0.229,-0.2293,-0.2279,-0.2284,-0.2288,0,0,0,0,0,0,-0.2019,-0.2064,-0.2068,-0.2096,-0.2127,-0.2161,-0.2169,-0.2178,-0.2191,-0.2182,-0.2185,-0.2187,-0.221,-0.2227,-0.2202,-0.2262,-0.2253,-0.2258,-0.224,-0.2245,-0.2248,-0.224,-0.2185,0,0,0,0,0,-0.2019,-0.2041,-0.2085,-0.2104,-0.2119,-0.2145,-0.216,-0.217,-0.2189,-0.2193,-0.2202,-0.2218,-0.2236,-0.2248,-0.2266,-0.2303,-0.2291,-0.2321,-0.2325,-0.2327,-0.2329,-0.2324,-0.2326,-0.2309,-0.2309,-0.2309,0,0,-0.2012,-0.204,-0.2051,-0.21,-0.2118,-0.2156,-0.2149,-0.2176,-0.2203,-0.2195,-0.2222,-0.2225,-0.2248,-0.2277,-0.2292,-0.229,-0.2325,-0.2333,-0.2334,-0.2334,-0.2329,-0.233,-0.2331,-0.2312,-0.2311,-0.2311,0,0,-0.202,-0.2035,-0.2062,-0.2095,-0.2135,-0.2156,-0.2166,-0.2205,-0.2212,-0.2249,-0.2242,-0.2253,-0.2296,-0.2305,-0.2318,-0.2361,-0.2338,-0.2375,-0.239,-0.2386,-0.2386,-0.2386,-0.2356,-0.2353,-0.2384,-0.2384,-0.2384,0,-0.2008,-0.2049,-0.2074,-0.2115,-0.2138,-0.2158,-0.2194,-0.2218,-0.2258,-0.2265,-0.2257,-0.2299,-0.2309,-0.2339,-0.235,-0.2364,-0.235,-0.2362,-0.2386,-0.2386,-0.2386,-0.2355,-0.2352,-0.2384,-0.2384,-0.2384,-0.2384,0,-0.2045,-0.2076,-0.2092,-0.2148,-0.2181,-0.221,-0.2253,-0.2275,-0.2282,-0.2302,-0.2324,-0.2334,-0.2356,-0.2367,-0.237,-0.2388,-0.2371,-0.2378,-0.2362,-0.2386,-0.2353,-0.235,-0.2384,-0.2384,-0.2384,-0.2384,0,0,-0.2009,-0.2101,-0.2102,-0.2131,-0.2197,-0.2225,-0.2271,-0.2312,-0.2328,-0.2354,-0.237,-0.2396,-0.2385,-0.24,-0.2402,-0.2404,-0.2383,-0.2394,-0.2394,-0.2341,-0.235,-0.227,-0.2259,-0.2388,-0.2388,-0.2388,-0.2318,0,-0.2021,-0.2092,-0.2139,-0.2194,-0.2229,-0.2268,-0.2309,-0.2349,-0.2368,-0.239,-0.2395,-0.2411,-0.2406,-0.2405,-0.2406,-0.2394,-0.2379,-0.24,-0.2355,-0.2354,-0.2261,-0.2255,-0.2165,-0.2089,-0.2315,-0.2315,-0.2314,0,-0.2033,-0.2079,-0.2139,-0.2212,-0.2229,-0.2266,-0.2312,-0.2355,-0.2395,-0.2408,-0.2421,-0.2425,-0.2433,-0.2421,-0.2399,-0.2411,-0.2378,-0.2362,-0.2359,-0.2287,-0.227,-0.2109,-0.2076,-0.2058,-0.231,-0.231,-0.2311,0,-0.1983,-0.207,-0.211,-0.2139,-0.2232,-0.2253,-0.2292,-0.2346,-0.2368,-0.2409,-0.2414,-0.2434,-0.2422,-0.241,-0.2375,-0.2386,-0.2335,-0.2347,-0.2239,-0.2232,-0.2148,-0.2134,-0.2073,-0.2316,-0.2316,-0.2317,-0.2317,0,-0.1971,-0.1998,-0.2086,-0.2109,-0.2143,-0.2221,-0.2247,-0.2295,-0.2343,-0.236,-0.2405,-0.2408,-0.2417,-0.2393,-0.2372,-0.2285,-0.2327,-0.2228,-0.2209,-0.2141,-0.2127,-0.2104,-0.2144,-0.2314,-0.2314,-0.2315,-0.2315,0,-0.1906,-0.1973,-0.2015,-0.21,-0.2123,-0.2141,-0.2209,-0.2226,-0.2287,-0.2309,-0.2318,-0.2368,-0.2339,-0.2327,-0.2294,-0.2252,-0.2161,-0.2158,-0.2062,-0.2032,-0.1912,-0.1956,-0.1902,-0.1843,-0.2026,-0.2024,-0.2022,0,-0.1879,-0.1895,-0.1976,-0.199,-0.2023,-0.2061,-0.2086,-0.2176,-0.22,-0.2277,-0.2278,-0.2275,-0.2244,-0.2164,-0.211,-0.2032,-0.2052,-0.19,-0.1908,-0.1877,-0.1914,-0.1957,-0.1915,-0.1788,-0.1784,-0.1781,-0.1779,0,-0.1803,-0.1828,-0.1858,-0.1891,-0.1919,-0.1949,-0.1996,-0.2008,-0.2109,-0.2126,-0.2142,-0.2126,-0.2077,-0.1967,-0.188,-0.1831,-0.1861,-0.1832,-0.1834,-0.1744,-0.1756,-0.1698,-0.1856,-0.1752,-0.1754,-0.1756,-0.1758,-0.1759,-0.1716,-0.1715,-0.175,-0.1766,-0.1799,-0.1807,-0.1782,-0.1842,-0.1851,-0.1858,-0.195,-0.1903,-0.1877,-0.174,-0.1681,-0.1563,-0.1645,-0.1521,-0.158,-0.1628,-0.1563,-0.1642,-0.1502,-0.1503,-0.1504,-0.1505,-0.1506,0,-0.1601,-0.1612,-0.1622,-0.1637,-0.161,-0.1675,-0.1695,-0.1646,-0.1604,-0.1663,-0.1647,-0.1648,-0.1543,-0.1526,-0.1435,-0.1352,-0.1325,-0.1322,-0.1375,-0.1344,-0.1424,-0.1403,-0.1194,-0.1194,-0.1194,-0.1194,-0.1195,-0.1195,-0.1542,-0.151,-0.1518,-0.1436,-0.1437,-0.1362,-0.1338,-0.1297,-0.1306,-0.1262,-0.1291,-0.1354,-0.139,-0.1506,-0.1389,-0.13,-0.1279,-0.1233,-0.1264,-0.1348,-0.1372,-0.1395,-0.1381,-0.1171,-0.1171,-0.1114,-0.1114,-0.1114]},{"header":{"parameterUnit":"m.s-1","parameterCategory":2,"la1":30.2991,"la2":30.254,"lo1":-89.0895,"lo2":-89.0444,"dy":0.0017,"dx":0.0017,"nx":28,"ny":28,"refTime":"2024-06-06T21:00:00:Z","depth":"0","parameterNumber":3,"parameterNumberName":"V-component_of_CURRENTS"},"data":[0,0,0,0,0,0,0,0,0,0,0,0,0,0,0,0,0,0,0,0,0,0,0,0,0,0,0,0,0,0,0,0,0,0,0,0,0,0,0,0,0,0,0,0,0,0,0,0,0,0,0,0,0,0,0,0,0,0,-0.0163,-0.0163,0,-0.009,-0.0089,-0.0088,-0.0029,-0.0029,-0.0028,-0.0028,0.0111,0.0114,0.0117,0,0,0,0,0,0,0,0,0,0,0,0,0,-0.021,-0.021,-0.0164,-0.0163,-0.0162,-0.009,-0.0089,-0.0088,-0.0029,-0.0029,-0.0028,-0.0027,0.011,0.0113,0.0117,0,0,0,0,0,0,0,0,0,0,0,0,0,-0.0168,-0.0209,-0.0164,-0.0125,-0.012,-0.009,-0.0089,-0.0087,-0.0029,-0.0029,-0.0028,-0.0027,0.0108,0.0113,0.0118,0.0132,0,0,0.0132,0.0135,0,0,0,0,0,0,0,0,-0.017,-0.0166,-0.0131,-0.0127,-0.0123,-0.0069,-0.0054,-0.0011,-0.0029,-0.0063,-0.0028,-0.0027,0.0056,0.0065,0.0077,0.0139,0.0145,0.0133,0.0136,0.0138,0.0139,0,0,0,0,0,0,0,-0.0173,-0.0168,-0.0133,-0.013,-0.0125,-0.0096,-0.0089,-0.0046,-0.0007,-0.006,-0.0056,-0.0049,0.0059,0.0072,0.0081,0.0147,0.0133,0.0137,0.014,0.0142,0.0229,0.0228,0,0,0,0,0,0,-0.0187,-0.0172,-0.0136,-0.0131,-0.0146,-0.0096,-0.0088,-0.0086,-0.0009,0.0003,-0.005,-0.0047,0.0064,0.0075,0.0086,0.0097,0.0138,0.0142,0.0145,0.0229,0.0229,0.0228,0,0,0,0,0,0,-0.0189,-0.0185,-0.0139,-0.015,-0.0142,-0.0096,-0.0094,-0.0085,-0.007,-0.0002,0.0011,-0.0044,0.0065,0.008,0.0114,0.0104,0.0145,0.0149,0.023,0.0229,0.0228,0.0127,0,0,0,0,0,0,-0.019,-0.0186,-0.0191,-0.0151,-0.0142,-0.013,-0.0094,-0.0084,-0.0067,-0.0062,0.0008,0.0021,0.0067,0.0106,0.0119,0.0111,0.0153,0.0231,0.023,0.0229,0.0131,0.0122,0.0115,0,0,0,0,0,-0.0192,-0.0206,-0.0192,-0.0188,-0.0151,-0.013,-0.0123,-0.0087,-0.0068,-0.0069,-0.0025,0.0019,0.0109,0.0109,0.0124,0.0118,0.0231,0.023,0.0229,0.0134,0.0124,0.0115,0,0,0,0,0,0,-0.0229,-0.02,-0.0184,-0.0189,-0.0165,-0.0121,-0.0119,-0.0094,-0.006,-0.0054,0.0011,0.0027,0.0052,0.0099,0.0098,0.014,0.0178,0.0179,0.0101,0.0092,0.0084,0.0084,0.0157,0,0,0,0,0,-0.0241,-0.0244,-0.0209,-0.0213,-0.0204,-0.0163,-0.0151,-0.0127,-0.0091,-0.0076,-0.0028,0.0022,0.0057,0.0085,0.0124,0.0149,0.0199,0.0155,0.0148,0.0141,0.0151,0.0204,0.0202,0.0224,0.0224,0.0224,0,0,-0.0256,-0.0242,-0.0242,-0.0221,-0.0199,-0.0198,-0.0154,-0.0142,-0.0137,-0.0065,-0.0046,-0.0006,0.0056,0.0078,0.0094,0.0118,0.0157,0.0139,0.0132,0.0147,0.0202,0.02,0.0198,0.0223,0.0223,0.0223,0,0,-0.0294,-0.0275,-0.0293,-0.0279,-0.0255,-0.0228,-0.0228,-0.0189,-0.0168,-0.0147,-0.0099,-0.0067,-0.0005,0.0033,0.0061,0.0037,0.0109,0.0051,0.002,0.007,0.0069,0.0068,0.0112,0.0116,0.0053,0.0053,0.0053,0,-0.0315,-0.0329,-0.0295,-0.0308,-0.0301,-0.0247,-0.0261,-0.0234,-0.0189,-0.0172,-0.0153,-0.0071,-0.0026,0.0008,-0.0002,0.002,0.0062,0.0046,0.0059,0.006,0.0062,0.0107,0.0113,0.0048,0.0049,0.0049,0.005,0,-0.0365,-0.0375,-0.0385,-0.0381,-0.0369,-0.0373,-0.0331,-0.0315,-0.0281,-0.0246,-0.0208,-0.0149,-0.0095,-0.0083,-0.0047,-0.0019,0.0011,0.0035,0.0079,0.0053,0.0102,0.011,0.0041,0.0043,0.0044,0.0045,0,0,-0.0412,-0.042,-0.0423,-0.0436,-0.0409,-0.0406,-0.0395,-0.0366,-0.0355,-0.0306,-0.0285,-0.0228,-0.0185,-0.0149,-0.0101,-0.0054,-0.0023,-0.0008,-0.0003,0.0029,0.0088,0.0138,0.0153,0.0005,0.0007,0.0008,0.0112,0,-0.0462,-0.0509,-0.0491,-0.0524,-0.0543,-0.0492,-0.0485,-0.045,-0.0404,-0.037,-0.0297,-0.0259,-0.0212,-0.0189,-0.0138,-0.0047,-0.0002,-0.0053,0.0116,0.0121,0.0164,0.0164,0.0213,0.0314,0.0121,0.0122,0.0123,0,-0.0515,-0.054,-0.0587,-0.0597,-0.0599,-0.0604,-0.0575,-0.0563,-0.0493,-0.0456,-0.0396,-0.0329,-0.0255,-0.0215,-0.0067,-0.0099,-0.0014,0.0057,0.0063,0.0158,0.0188,0.0314,0.0337,0.0505,0.0137,0.0136,0.0135,0,-0.0569,-0.0604,-0.0645,-0.065,-0.065,-0.0655,-0.0645,-0.0591,-0.0576,-0.0506,-0.0479,-0.0377,-0.0322,-0.0201,-0.0048,-0.0055,0.0122,0.0129,0.0254,0.0258,0.036,0.0371,0.0565,0.023,0.023,0.023,0.0229,0,-0.0628,-0.0661,-0.0677,-0.0701,-0.0741,-0.0714,-0.073,-0.07,-0.0649,-0.0628,-0.0528,-0.0476,-0.0313,-0.0187,-0.0057,0.0135,0.0119,0.0259,0.0295,0.0323,0.033,0.053,0.0593,0.0234,0.0233,0.0232,0.0231,0,-0.0679,-0.0691,-0.0743,-0.0763,-0.0771,-0.0798,-0.0797,-0.0799,-0.0741,-0.0707,-0.0686,-0.0544,-0.0372,-0.0198,0.0008,0.0125,0.0412,0.0365,0.0386,0.0422,0.0683,0.0737,0.0968,0.1076,0.0515,0.0517,0.0519,0,-0.0712,-0.0743,-0.0793,-0.0827,-0.084,-0.0872,-0.0887,-0.0851,-0.0844,-0.0738,-0.072,-0.0553,-0.0413,-0.0089,0.0151,0.0398,0.0515,0.0572,0.0566,0.0722,0.0808,0.0839,0.0915,0.0655,0.0658,0.066,0.0661,0,-0.0765,-0.0779,-0.082,-0.0891,-0.0928,-0.0968,-0.0983,-0.0988,-0.0927,-0.0865,-0.0743,-0.0618,-0.0296,0.0023,0.0338,0.0482,0.0714,0.0624,0.0792,0.0947,0.099,0.1102,0.0552,0.0681,0.0679,0.0677,0.0676,0.0676,-0.0795,-0.084,-0.089,-0.0952,-0.0999,-0.1039,-0.1055,-0.1038,-0.1001,-0.088,-0.0764,-0.0537,-0.008,0.0385,0.0568,0.0952,0.0894,0.1052,0.1107,0.1126,0.1235,0.0723,0.0884,0.0883,0.0883,0.0882,0.0882,0,-0.0829,-0.0877,-0.0944,-0.1016,-0.1064,-0.1074,-0.1095,-0.1069,-0.1002,-0.0861,-0.0704,-0.0203,0.0254,0.067,0.1207,0.1423,0.1475,0.1517,0.1585,0.1642,0.1207,0.1219,0.1452,0.1452,0.1452,0.1452,0.1451,0.1451,-0.085,-0.0918,-0.0955,-0.1044,-0.1087,-0.1116,-0.1117,-0.1049,-0.094,-0.0658,-0.0383,-0.0162,0.0434,0.1311,0.1818,0.1863,0.2066,0.2037,0.214,0.1847,0.1807,0.177,0.1799,0.2149,0.215,0.257,0.2574,0.2577]}],[{"header":{"parameterUnit":"m.s-1","parameterCategory":2,"la1":30.2991,"la2":30.254,"lo1":-89.0895,"lo2":-89.0444,"dy":0.0017,"dx":0.0017,"nx":28,"ny":28,"refTime":"2024-06-06T21:00:00:Z","depth":"2","parameterNumber":2,"parameterNumberName":"U-component_of_CURRENTS"},"data":[0,0,0,0,0,0,0,0,0,0,0,0,0,0,0,0,0,0,0,0,0,0,0,0,0,0,0,0,0,0,0,0,0,0,0,0,0,0,0,0,0,0,0,0,0,0,0,0,0,0,0,0,0,0,0,0,0,0,-0.1968,-0.1968,0,-0.2018,-0.2018,-0.2019,-0.2009,-0.2008,-0.2007,-0.2006,-0.202,-0.2021,-0.2023,0,0,0,0,0,0,0,0,0,0,0,0,0,-0.188,-0.1882,-0.1968,-0.1968,-0.1969,-0.2018,-0.2018,-0.2019,-0.2009,-0.2008,-0.2007,-0.2006,-0.202,-0.2021,-0.2023,0,0,0,0,0,0,0,0,0,0,0,0,0,-0.1922,-0.1882,-0.1967,-0.1971,-0.1972,-0.2017,-0.2018,-0.2019,-0.2009,-0.2008,-0.2007,-0.2005,-0.202,-0.2021,-0.2023,-0.2057,0,0,-0.2028,-0.2029,0,0,0,0,0,0,0,0,-0.1919,-0.1925,-0.197,-0.1971,-0.1972,-0.2007,-0.1993,-0.203,-0.2009,-0.1993,-0.2006,-0.2005,-0.2014,-0.2016,-0.2027,-0.2058,-0.2058,-0.2028,-0.2029,-0.203,-0.203,0,0,0,0,0,0,0,-0.1916,-0.1923,-0.1986,-0.1971,-0.1972,-0.1976,-0.198,-0.2,-0.2008,-0.1995,-0.1994,-0.2003,-0.2014,-0.2025,-0.2027,-0.2059,-0.2028,-0.203,-0.2031,-0.2031,-0.2138,-0.214,0,0,0,0,0,0,-0.1914,-0.192,-0.1984,-0.1988,-0.1944,-0.1978,-0.1983,-0.1996,-0.2009,-0.201,-0.2003,-0.2002,-0.2023,-0.2025,-0.2028,-0.2064,-0.203,-0.2031,-0.2032,-0.2136,-0.2138,-0.214,0,0,0,0,0,0,-0.1912,-0.1919,-0.1982,-0.1956,-0.1964,-0.1981,-0.1995,-0.1997,-0.2007,-0.2016,-0.2016,-0.2011,-0.2022,-0.2025,-0.2053,-0.2064,-0.2032,-0.2034,-0.2134,-0.2137,-0.2139,-0.2139,0,0,0,0,0,0,-0.1909,-0.1918,-0.1925,-0.1956,-0.1965,-0.2011,-0.1997,-0.1999,-0.2015,-0.2013,-0.2023,-0.2023,-0.2022,-0.2051,-0.2055,-0.2066,-0.2035,-0.2132,-0.2135,-0.2138,-0.2137,-0.2142,-0.2146,0,0,0,0,0,-0.1906,-0.1921,-0.1925,-0.1933,-0.1975,-0.2012,-0.2018,-0.2025,-0.2016,-0.2027,-0.2037,-0.2023,-0.2075,-0.2054,-0.2058,-0.207,-0.213,-0.2134,-0.2138,-0.2135,-0.2141,-0.2145,0,0,0,0,0,0,-0.1884,-0.1923,-0.1927,-0.1952,-0.1981,-0.2011,-0.202,-0.203,-0.2048,-0.2042,-0.2045,-0.2047,-0.2074,-0.2084,-0.206,-0.2115,-0.2102,-0.2107,-0.2098,-0.2103,-0.2107,-0.21,-0.2036,0,0,0,0,0,-0.1884,-0.1904,-0.1942,-0.196,-0.1973,-0.1998,-0.2013,-0.2023,-0.2045,-0.2051,-0.2061,-0.2077,-0.2098,-0.2108,-0.2126,-0.2159,-0.2146,-0.2174,-0.2178,-0.2181,-0.2182,-0.218,-0.2182,-0.2154,-0.2154,-0.2154,0,0,-0.1879,-0.1903,-0.1913,-0.1956,-0.1973,-0.2008,-0.2003,-0.203,-0.2057,-0.2051,-0.2083,-0.209,-0.2111,-0.2142,-0.2156,-0.2148,-0.2183,-0.2187,-0.2189,-0.2188,-0.2184,-0.2186,-0.2188,-0.2157,-0.2156,-0.2156,0,0,-0.1886,-0.1901,-0.1923,-0.1953,-0.199,-0.201,-0.202,-0.2058,-0.2068,-0.2109,-0.2107,-0.2124,-0.2163,-0.2174,-0.2185,-0.2232,-0.2204,-0.2243,-0.2257,-0.2254,-0.2255,-0.2256,-0.2231,-0.223,-0.2246,-0.2246,-0.2246,0,-0.1877,-0.1912,-0.1935,-0.197,-0.1992,-0.2014,-0.2046,-0.2072,-0.2114,-0.2125,-0.212,-0.2169,-0.2178,-0.2211,-0.2225,-0.2237,-0.2224,-0.2227,-0.2256,-0.2257,-0.2257,-0.2231,-0.223,-0.2247,-0.2247,-0.2247,-0.2246,0,-0.1909,-0.1937,-0.1951,-0.2001,-0.2032,-0.206,-0.2103,-0.2128,-0.2141,-0.2162,-0.2193,-0.2208,-0.2232,-0.2243,-0.2247,-0.2267,-0.2251,-0.2254,-0.2231,-0.2259,-0.2231,-0.2229,-0.2247,-0.2247,-0.2247,-0.2247,0,0,-0.1877,-0.1958,-0.1959,-0.1986,-0.2048,-0.2074,-0.2122,-0.2165,-0.2187,-0.2218,-0.224,-0.2272,-0.2265,-0.228,-0.2283,-0.2285,-0.2273,-0.2273,-0.2273,-0.2227,-0.2248,-0.2163,-0.2153,-0.2276,-0.2276,-0.2276,-0.2219,0,-0.1887,-0.1949,-0.1991,-0.2043,-0.2075,-0.2116,-0.216,-0.2202,-0.2227,-0.2256,-0.2267,-0.229,-0.2286,-0.2289,-0.2291,-0.2284,-0.2272,-0.2287,-0.2245,-0.2244,-0.2148,-0.215,-0.2005,-0.1936,-0.2217,-0.2216,-0.2216,0,-0.1897,-0.1937,-0.1991,-0.2061,-0.2077,-0.2114,-0.2167,-0.2211,-0.226,-0.2278,-0.2298,-0.2307,-0.232,-0.2308,-0.2294,-0.2303,-0.2274,-0.2261,-0.2258,-0.2178,-0.2157,-0.1959,-0.1922,-0.2213,-0.2213,-0.2214,-0.2214,0,-0.1852,-0.1931,-0.1967,-0.1994,-0.2082,-0.2106,-0.2146,-0.2206,-0.2232,-0.2282,-0.2293,-0.2318,-0.2313,-0.2304,-0.2275,-0.2285,-0.2243,-0.2253,-0.2146,-0.2139,-0.2007,-0.1988,-0.223,-0.223,-0.223,-0.223,-0.223,0,-0.1841,-0.1867,-0.1947,-0.1968,-0.2004,-0.2077,-0.211,-0.2161,-0.2215,-0.2238,-0.2287,-0.2295,-0.231,-0.2292,-0.2273,-0.2193,-0.2237,-0.2139,-0.2119,-0.2003,-0.1986,-0.2228,-0.2228,-0.2228,-0.2228,-0.2229,-0.2229,0,-0.1783,-0.1843,-0.1882,-0.1963,-0.1985,-0.2006,-0.2076,-0.2098,-0.2164,-0.2192,-0.2205,-0.226,-0.2238,-0.2231,-0.2205,-0.2163,-0.2118,-0.2075,-0.1926,-0.1889,-0.2016,-0.2018,-0.1954,-0.1951,-0.1948,-0.1945,-0.1943,0,-0.1759,-0.1774,-0.1848,-0.1863,-0.1895,-0.1935,-0.1963,-0.2053,-0.208,-0.2163,-0.2168,-0.2173,-0.2146,-0.2074,-0.2014,-0.194,-0.202,-0.1765,-0.1761,-0.2001,-0.1989,-0.1995,-0.2001,-0.1583,-0.1578,-0.1575,-0.1571,0,-0.1692,-0.1716,-0.1744,-0.1775,-0.1805,-0.1833,-0.1883,-0.1896,-0.1998,-0.2019,-0.2037,-0.2023,-0.1975,-0.1835,-0.175,-0.1699,-0.1771,-0.168,-0.1962,-0.1679,-0.1647,-0.1637,-0.1655,-0.1536,-0.154,-0.1542,-0.1544,-0.1546,-0.1617,-0.1617,-0.165,-0.1665,-0.1699,-0.1706,-0.1683,-0.174,-0.175,-0.176,-0.1846,-0.1777,-0.1775,-0.1562,-0.1472,-0.1401,-0.1528,-0.1467,-0.1481,-0.1499,-0.147,-0.1435,-0.1277,-0.1279,-0.1281,-0.1282,-0.1283,0,-0.1515,-0.1526,-0.1536,-0.155,-0.1527,-0.1587,-0.1605,-0.1557,-0.1516,-0.1561,-0.1542,-0.1394,-0.1295,-0.1293,-0.1126,-0.1087,-0.1092,-0.1042,-0.106,-0.1095,-0.1126,-0.108,-0.0783,-0.0781,-0.078,-0.0778,0,0,-0.1464,-0.1435,-0.144,-0.1366,-0.1367,-0.1297,-0.1274,-0.123,-0.1227,-0.1155,-0.1131,-0.1231,-0.1263,-0.1037,-0.0974,-0.085,-0.0964,-0.0802,-0.1205,-0.1262,-0.1291,-0.137,-0.1339,0,0,0,0,0]},{"header":{"parameterUnit":"m.s-1","parameterCategory":2,"la1":30.2991,"la2":30.254,"lo1":-89.0895,"lo2":-89.0444,"dy":0.0017,"dx":0.0017,"nx":28,"ny":28,"refTime":"2024-06-06T21:00:00:Z","depth":"2","parameterNumber":3,"parameterNumberName":"V-component_of_CURRENTS"},"data":[0,0,0,0,0,0,0,0,0,0,0,0,0,0,0,0,0,0,0,0,0,0,0,0,0,0,0,0,0,0,0,0,0,0,0,0,0,0,0,0,0,0,0,0,0,0,0,0,0,0,0,0,0,0,0,0,0,0,-0.0135,-0.0134,0,-0.0068,-0.0067,-0.0066,-0.0013,-0.0012,-0.0012,-0.0012,0.0117,0.012,0.0123,0,0,0,0,0,0,0,0,0,0,0,0,0,-0.0176,-0.0176,-0.0135,-0.0134,-0.0134,-0.0068,-0.0067,-0.0066,-0.0013,-0.0012,-0.0012,-0.0011,0.0116,0.012,0.0124,0,0,0,0,0,0,0,0,0,0,0,0,0,-0.0138,-0.0176,-0.0135,-0.01,-0.0096,-0.0068,-0.0067,-0.0066,-0.0013,-0.0012,-0.0012,-0.0011,0.0115,0.012,0.0124,0.0139,0,0,0.0138,0.014,0,0,0,0,0,0,0,0,-0.014,-0.0136,-0.0106,-0.0102,-0.0098,-0.0049,-0.0034,0.0006,-0.0013,-0.0044,-0.0012,-0.0011,0.0066,0.0075,0.0087,0.0145,0.0151,0.0138,0.0141,0.0143,0.0144,0,0,0,0,0,0,0,-0.0143,-0.0139,-0.0107,-0.0105,-0.01,-0.0073,-0.0067,-0.0026,0.0009,-0.0041,-0.0037,-0.0031,0.0069,0.0082,0.009,0.0152,0.0138,0.0142,0.0145,0.0147,0.0233,0.0232,0,0,0,0,0,0,-0.0156,-0.0141,-0.011,-0.0106,-0.0119,-0.0073,-0.0067,-0.0065,0.0007,0.0018,-0.0032,-0.0029,0.0074,0.0085,0.0095,0.0111,0.0143,0.0147,0.015,0.0233,0.0233,0.0232,0,0,0,0,0,0,-0.0157,-0.0154,-0.0112,-0.0122,-0.0115,-0.0074,-0.0071,-0.0064,-0.005,0.0013,0.0025,-0.0026,0.0075,0.0089,0.0123,0.0117,0.0149,0.0153,0.0234,0.0233,0.0233,0.0146,0,0,0,0,0,0,-0.0159,-0.0155,-0.016,-0.0124,-0.0115,-0.0103,-0.0072,-0.0063,-0.0048,-0.0043,0.0022,0.0035,0.0077,0.0115,0.0127,0.0123,0.0157,0.0234,0.0233,0.0233,0.015,0.0143,0.0137,0,0,0,0,0,-0.0161,-0.0173,-0.0161,-0.0157,-0.0123,-0.0104,-0.0098,-0.0065,-0.0048,-0.0048,-0.0007,0.0033,0.0119,0.0118,0.0132,0.013,0.0235,0.0234,0.0233,0.0153,0.0144,0.0137,0,0,0,0,0,0,-0.0193,-0.0167,-0.0154,-0.0157,-0.0136,-0.0096,-0.0094,-0.0071,-0.0039,-0.0034,0.0027,0.0042,0.0067,0.011,0.0108,0.0152,0.0184,0.0186,0.0118,0.0111,0.0105,0.0101,0.0161,0,0,0,0,0,-0.0204,-0.0207,-0.0175,-0.0179,-0.0171,-0.0134,-0.0122,-0.0101,-0.0067,-0.0053,-0.0009,0.0038,0.0073,0.01,0.0136,0.0164,0.0208,0.0172,0.0165,0.0159,0.0166,0.0219,0.0218,0.0229,0.0229,0.0229,0,0,-0.0217,-0.0204,-0.0205,-0.0186,-0.0166,-0.0164,-0.0125,-0.0114,-0.0108,-0.0043,-0.0023,0.0014,0.0073,0.0097,0.0113,0.0134,0.0176,0.0158,0.0153,0.0163,0.0218,0.0217,0.0216,0.0228,0.0228,0.0229,0,0,-0.025,-0.0234,-0.0249,-0.0236,-0.0215,-0.019,-0.019,-0.0154,-0.0134,-0.0113,-0.0069,-0.0036,0.0022,0.0061,0.0089,0.0072,0.0134,0.0083,0.0057,0.0108,0.0107,0.0108,0.0147,0.0151,0.0087,0.0087,0.0087,0,-0.0269,-0.0281,-0.025,-0.0261,-0.0255,-0.0206,-0.0218,-0.0192,-0.015,-0.0134,-0.0118,-0.0038,0.0006,0.0044,0.0036,0.0058,0.0094,0.0078,0.0099,0.01,0.0102,0.0142,0.0149,0.0083,0.0083,0.0084,0.0084,0,-0.0311,-0.032,-0.0328,-0.0324,-0.0312,-0.0314,-0.0276,-0.0261,-0.023,-0.0197,-0.0159,-0.0101,-0.0049,-0.0035,-0.0003,0.0029,0.0052,0.0076,0.0116,0.0096,0.0139,0.0147,0.0077,0.0078,0.008,0.0081,0,0,-0.0353,-0.0358,-0.0361,-0.0372,-0.0346,-0.0342,-0.033,-0.0302,-0.029,-0.0244,-0.0222,-0.0165,-0.0125,-0.0091,-0.0044,0.0002,0.0035,0.004,0.0045,0.0074,0.014,0.0176,0.0188,0.0063,0.0064,0.0065,0.016,0,-0.0396,-0.0436,-0.0418,-0.0446,-0.0461,-0.0416,-0.0408,-0.0373,-0.0331,-0.0298,-0.0227,-0.019,-0.0147,-0.0125,-0.0074,0.001,0.0055,0.0007,0.0161,0.0166,0.0196,0.0199,0.0176,0.0261,0.0168,0.0169,0.017,0,-0.0443,-0.0463,-0.0503,-0.051,-0.0511,-0.0515,-0.0487,-0.0473,-0.0407,-0.0373,-0.0314,-0.0253,-0.018,-0.0144,-0.0003,-0.0036,0.0043,0.011,0.0115,0.0189,0.0217,0.0271,0.028,0.0184,0.0183,0.0182,0.0181,0,-0.0492,-0.0521,-0.0555,-0.0559,-0.0556,-0.056,-0.0551,-0.0499,-0.0484,-0.0417,-0.0392,-0.0293,-0.0242,-0.0128,0.0012,0.0006,0.017,0.0181,0.0287,0.029,0.0324,0.0328,0.0278,0.0278,0.0278,0.0278,0.0277,0,-0.0545,-0.0573,-0.0585,-0.0606,-0.0642,-0.0615,-0.0628,-0.06,-0.0552,-0.0531,-0.0437,-0.0389,-0.0234,-0.0118,0.0003,0.0176,0.0168,0.029,0.0323,0.0292,0.0292,0.0272,0.027,0.0281,0.028,0.028,0.0279,0,-0.0594,-0.0602,-0.0646,-0.0661,-0.0669,-0.0694,-0.0692,-0.0693,-0.0639,-0.0607,-0.0587,-0.0455,-0.0297,-0.0135,0.0059,0.0165,0.0323,0.0383,0.0331,0.0357,0.0407,0.0399,0.0509,0.0511,0.0513,0.0514,0.0516,0,-0.0624,-0.0651,-0.0693,-0.0724,-0.0736,-0.0765,-0.0779,-0.0744,-0.0736,-0.0638,-0.0623,-0.047,-0.0343,-0.0047,0.0166,0.039,0.038,0.0488,0.0477,0.0412,0.0434,0.0423,0.0413,0.048,0.0481,0.0482,0.0482,0,-0.0676,-0.0686,-0.0722,-0.0787,-0.0821,-0.0856,-0.0871,-0.0875,-0.0817,-0.076,-0.0649,-0.0537,-0.0252,0.0005,0.0285,0.0407,0.0451,0.0511,0.0474,0.0423,0.0393,0.0411,0.0401,0.0489,0.0488,0.0488,0.0487,0.0487,-0.0706,-0.0747,-0.0791,-0.0848,-0.0891,-0.0928,-0.0943,-0.0926,-0.0891,-0.0781,-0.0673,-0.0472,-0.0234,0.0179,0.0379,0.0551,0.0543,0.0584,0.0578,0.0573,0.0551,0.0526,0.0641,0.0642,0.0642,0.0642,0.0642,0,-0.0743,-0.0786,-0.0848,-0.0913,-0.0957,-0.0966,-0.0985,-0.0961,-0.0899,-0.0769,-0.0625,-0.0345,-0.0055,0.0182,0.0475,0.0648,0.0619,0.066,0.0593,0.0586,0.0579,0.0555,0.0648,0.0649,0.0649,0.065,0,0,-0.0766,-0.0829,-0.0861,-0.0944,-0.0986,-0.1016,-0.1017,-0.0953,-0.0853,-0.0705,-0.0548,-0.0335,-0.0038,0.0173,0.0386,0.0531,0.0509,0.0534,0.0512,0.0401,0.0393,0.052,0.0472,0,0,0,0,0]}],[{"header":{"parameterUnit":"m.s-1","parameterCategory":2,"la1":30.2991,"la2":30.254,"lo1":-89.0895,"lo2":-89.0444,"dy":0.0017,"dx":0.0017,"nx":28,"ny":28,"refTime":"2024-06-06T21:00:00:Z","depth":"4","parameterNumber":2,"parameterNumberName":"U-component_of_CURRENTS"},"data":[0,0,0,0,0,0,0,0,0,0,0,0,0,0,0,0,0,0,0,0,0,0,0,0,0,0,0,0,0,0,0,0,0,0,0,0,0,0,0,0,0,0,0,0,0,0,0,0,0,0,0,0,0,0,0,0,0,0,-0.1409,-0.141,0,-0.148,-0.148,-0.1481,-0.1519,-0.1519,-0.1519,-0.152,-0.159,-0.1591,-0.1593,0,0,0,0,0,0,0,0,0,0,0,0,0,-0.132,-0.1321,-0.1409,-0.141,-0.1411,-0.1479,-0.148,-0.1481,-0.1519,-0.1519,-0.152,-0.152,-0.1589,-0.1591,-0.1593,0,0,0,0,0,0,0,0,0,0,0,0,0,-0.1371,-0.1322,-0.1409,-0.1439,-0.1442,-0.1479,-0.148,-0.1482,-0.1519,-0.1519,-0.152,-0.152,-0.1589,-0.1591,-0.1594,-0.1605,0,0,-0.1602,-0.1603,0,0,0,0,0,0,0,0,-0.1368,-0.1374,-0.1434,-0.1437,-0.1441,-0.1491,-0.1475,-0.1523,-0.1519,-0.1489,-0.152,-0.152,-0.1557,-0.1562,-0.1574,-0.1608,-0.1611,-0.1602,-0.1603,-0.1604,-0.1605,0,0,0,0,0,0,0,-0.1364,-0.1371,-0.1437,-0.1435,-0.1439,-0.1453,-0.146,-0.1484,-0.1521,-0.1492,-0.1495,-0.1504,-0.1559,-0.1572,-0.1576,-0.1613,-0.1602,-0.1604,-0.1606,-0.1607,-0.1742,-0.1744,0,0,0,0,0,0,-0.1356,-0.1368,-0.1434,-0.1439,-0.1405,-0.1454,-0.1462,-0.1474,-0.152,-0.1528,-0.1503,-0.1505,-0.1567,-0.1573,-0.1579,-0.1654,-0.1604,-0.1607,-0.1608,-0.174,-0.1742,-0.1744,0,0,0,0,0,0,-0.1354,-0.1361,-0.1432,-0.1405,-0.1415,-0.1455,-0.1469,-0.1476,-0.1512,-0.1529,-0.1537,-0.1535,-0.1567,-0.1575,-0.1631,-0.1654,-0.1608,-0.161,-0.1737,-0.1741,-0.1743,-0.1766,0,0,0,0,0,0,-0.1351,-0.136,-0.1379,-0.1405,-0.1416,-0.1469,-0.1469,-0.1477,-0.1516,-0.152,-0.1559,-0.1564,-0.1568,-0.1627,-0.1634,-0.1657,-0.1612,-0.1735,-0.1739,-0.1742,-0.1763,-0.177,-0.1776,0,0,0,0,0,-0.1348,-0.1368,-0.1379,-0.1388,-0.1436,-0.147,-0.1478,-0.1506,-0.1517,-0.1539,-0.1574,-0.1564,-0.1656,-0.1631,-0.1638,-0.1663,-0.1733,-0.1738,-0.1742,-0.176,-0.1768,-0.1775,0,0,0,0,0,0,-0.1339,-0.1374,-0.1387,-0.1418,-0.1449,-0.1477,-0.1501,-0.1521,-0.1565,-0.1576,-0.1591,-0.1599,-0.1656,-0.1664,-0.1637,-0.1717,-0.1693,-0.1699,-0.1704,-0.1712,-0.1718,-0.171,-0.1615,0,0,0,0,0,-0.1345,-0.137,-0.1403,-0.1429,-0.1446,-0.1479,-0.1501,-0.1523,-0.1558,-0.1579,-0.1608,-0.1644,-0.1676,-0.1699,-0.1728,-0.1773,-0.1759,-0.1796,-0.1802,-0.1807,-0.1808,-0.1812,-0.1818,-0.176,-0.1759,-0.1759,0,0,-0.135,-0.1371,-0.1388,-0.143,-0.1455,-0.149,-0.1493,-0.1534,-0.1572,-0.1579,-0.1646,-0.1668,-0.1695,-0.1745,-0.1771,-0.1757,-0.1817,-0.1813,-0.1817,-0.1814,-0.1817,-0.1823,-0.1827,-0.1763,-0.1762,-0.1762,0,0,-0.1363,-0.1391,-0.1415,-0.1446,-0.149,-0.1512,-0.153,-0.1576,-0.1606,-0.1668,-0.1682,-0.1722,-0.1781,-0.1798,-0.1814,-0.1876,-0.185,-0.1892,-0.1915,-0.192,-0.1924,-0.1927,-0.1908,-0.191,-0.1894,-0.1894,-0.1895,0,-0.1369,-0.1403,-0.1429,-0.1461,-0.149,-0.1525,-0.1561,-0.1599,-0.1662,-0.1688,-0.1697,-0.1782,-0.1803,-0.1851,-0.1874,-0.1887,-0.1879,-0.1878,-0.1924,-0.1927,-0.193,-0.1911,-0.1912,-0.1896,-0.1896,-0.1896,-0.1896,0,-0.1396,-0.1435,-0.1452,-0.1504,-0.1539,-0.1576,-0.1626,-0.1672,-0.1712,-0.1743,-0.1809,-0.184,-0.1883,-0.1901,-0.1908,-0.1947,-0.193,-0.1927,-0.1895,-0.1937,-0.1914,-0.1915,-0.1899,-0.1898,-0.1897,-0.1897,0,0,-0.1376,-0.1456,-0.1464,-0.1496,-0.1566,-0.1594,-0.1661,-0.172,-0.1761,-0.182,-0.1865,-0.1924,-0.1933,-0.1953,-0.1965,-0.1974,-0.1985,-0.1964,-0.1963,-0.1927,-0.198,-0.1838,-0.1825,-0.1989,-0.1989,-0.199,-0.1952,0,-0.1389,-0.145,-0.1492,-0.1558,-0.1592,-0.1649,-0.1705,-0.1765,-0.1815,-0.1869,-0.1902,-0.1951,-0.1956,-0.1977,-0.1989,-0.1992,-0.1991,-0.1995,-0.1961,-0.196,-0.1813,-0.1822,-0.1992,-0.1952,-0.1952,-0.1952,-0.1952,0,-0.1395,-0.1436,-0.15,-0.1583,-0.1604,-0.1655,-0.1738,-0.1793,-0.1869,-0.1907,-0.1953,-0.1979,-0.2014,-0.2007,-0.2018,-0.2021,-0.2005,-0.1996,-0.1995,-0.1853,-0.1819,-0.1907,-0.1953,-0.1953,-0.1953,-0.1953,-0.1953,0,-0.1351,-0.1439,-0.149,-0.152,-0.162,-0.1665,-0.172,-0.1803,-0.1845,-0.1926,-0.1953,-0.2003,-0.2019,-0.2024,-0.201,-0.202,-0.1998,-0.2007,-0.1859,-0.1849,-0.1977,-0.1974,-0.2002,-0.2002,-0.2002,-0.2002,-0.2003,0,-0.1333,-0.1376,-0.1477,-0.1505,-0.1567,-0.1646,-0.1711,-0.1777,-0.1853,-0.1889,-0.1962,-0.1978,-0.2025,-0.2019,-0.201,-0.1919,-0.1994,-0.1852,-0.1827,-0.1989,-0.1988,-0.1976,-0.1974,-0.2001,-0.2001,-0.2002,-0.2002,0,-0.1273,-0.1344,-0.1405,-0.1513,-0.1548,-0.1591,-0.1693,-0.173,-0.1817,-0.1862,-0.1885,-0.1956,-0.1943,-0.1956,-0.195,-0.1889,-0.1841,-0.179,-0.1943,-0.1929,-0.1691,-0.1691,-0.1622,-0.1617,-0.1612,-0.1609,-0.1605,0,-0.1245,-0.1271,-0.1387,-0.1419,-0.1472,-0.1545,-0.1588,-0.1697,-0.1729,-0.1829,-0.1832,-0.1858,-0.1885,-0.1743,-0.1788,-0.1731,-0.1714,-0.1674,-0.1699,-0.1668,-0.1651,-0.1658,-0.1664,-0.1598,-0.1597,-0.1596,-0.1595,0,-0.118,-0.1233,-0.128,-0.1344,-0.1401,-0.1448,-0.1519,-0.1527,-0.1638,-0.1736,-0.1715,-0.1696,-0.1667,-0.1647,-0.1596,-0.157,-0.1697,-0.1627,-0.1637,-0.166,-0.1638,-0.1628,-0.1639,-0.1579,-0.1581,-0.1582,-0.1583,0,-0.1125,-0.114,-0.1204,-0.1245,-0.1312,-0.1323,-0.1377,-0.1403,-0.1443,-0.1562,-0.1551,-0.1585,-0.1649,-0.1562,-0.153,-0.1472,-0.146,-0.1418,-0.1439,-0.1457,-0.142,-0.1369,-0.1192,0,0,0,0,0,-0.1061,-0.1065,-0.1097,-0.1137,-0.1194,-0.1226,-0.1316,-0.1371,-0.1482,-0.1422,-0.1479,-0.145,-0.1395,-0.142,-0.1322,-0.1457,-0.1466,-0.1339,-0.1431,-0.1491,-0.1509,-0.1481,0,0,0,0,0,0,-0.1019,-0.105,-0.1058,-0.1026,-0.1027,-0.1073,-0.112,-0.1199,-0.1173,-0.129,-0.1261,-0.1352,-0.1314,-0.1413,-0.1287,-0.1292,-0.1316,-0.1372,-0.1367,-0.1481,-0.1497,-0.1512,-0.1489,0,0,0,0,0]},{"header":{"parameterUnit":"m.s-1","parameterCategory":2,"la1":30.2991,"la2":30.254,"lo1":-89.0895,"lo2":-89.0444,"dy":0.0017,"dx":0.0017,"nx":28,"ny":28,"refTime":"2024-06-06T21:00:00:Z","depth":"4","parameterNumber":3,"parameterNumberName":"V-component_of_CURRENTS"},"data":[0,0,0,0,0,0,0,0,0,0,0,0,0,0,0,0,0,0,0,0,0,0,0,0,0,0,0,0,0,0,0,0,0,0,0,0,0,0,0,0,0,0,0,0,0,0,0,0,0,0,0,0,0,0,0,0,0,0,-0.0103,-0.0103,0,-0.0057,-0.0057,-0.0056,-0.0018,-0.0018,-0.0018,-0.0017,0.0087,0.0089,0.0092,0,0,0,0,0,0,0,0,0,0,0,0,0,-0.0126,-0.0126,-0.0103,-0.0103,-0.0102,-0.0057,-0.0057,-0.0056,-0.0018,-0.0018,-0.0018,-0.0017,0.0086,0.0089,0.0092,0,0,0,0,0,0,0,0,0,0,0,0,0,-0.0101,-0.0126,-0.0103,-0.0079,-0.0076,-0.0058,-0.0057,-0.0056,-0.0018,-0.0018,-0.0018,-0.0017,0.0085,0.0089,0.0092,0.0106,0,0,0.0104,0.0105,0,0,0,0,0,0,0,0,-0.0102,-0.01,-0.0083,-0.008,-0.0077,-0.0044,-0.0027,0.0001,-0.0019,-0.0039,-0.0017,-0.0017,0.0048,0.0054,0.0063,0.0111,0.0116,0.0104,0.0106,0.0108,0.0109,0,0,0,0,0,0,0,-0.0104,-0.0101,-0.0084,-0.0082,-0.0079,-0.0059,-0.0055,-0.0021,0.0003,-0.0037,-0.0035,-0.0031,0.005,0.0059,0.0065,0.0117,0.0104,0.0107,0.011,0.0111,0.0187,0.0187,0,0,0,0,0,0,-0.0114,-0.0103,-0.0085,-0.0083,-0.009,-0.0059,-0.0055,-0.0054,0.0001,0.0009,-0.0032,-0.003,0.0052,0.0061,0.0069,0.0087,0.0108,0.0112,0.0114,0.0187,0.0187,0.0187,0,0,0,0,0,0,-0.0115,-0.0113,-0.0087,-0.0092,-0.0088,-0.006,-0.0059,-0.0054,-0.0044,0.0005,0.0014,-0.0028,0.0053,0.0064,0.0093,0.0092,0.0113,0.0117,0.0188,0.0187,0.0187,0.0124,0,0,0,0,0,0,-0.0116,-0.0114,-0.0119,-0.0093,-0.0088,-0.0082,-0.006,-0.0053,-0.0043,-0.004,0.0011,0.0021,0.0054,0.0087,0.0097,0.0097,0.012,0.0188,0.0187,0.0187,0.0127,0.0122,0.0118,0,0,0,0,0,-0.0117,-0.0126,-0.0119,-0.0117,-0.0095,-0.0082,-0.0078,-0.0055,-0.0044,-0.0044,-0.0011,0.002,0.0092,0.009,0.0101,0.0103,0.0188,0.0188,0.0187,0.0129,0.0123,0.0118,0,0,0,0,0,0,-0.0138,-0.0123,-0.0114,-0.0119,-0.0104,-0.0076,-0.0076,-0.0059,-0.0035,-0.0031,0.0016,0.0028,0.0051,0.0085,0.0082,0.0123,0.0146,0.0147,0.0097,0.0092,0.0088,0.0083,0.0123,0,0,0,0,0,-0.0146,-0.015,-0.013,-0.0134,-0.0129,-0.0103,-0.0096,-0.0081,-0.0056,-0.0045,-0.001,0.0028,0.0058,0.008,0.011,0.0136,0.0171,0.0145,0.014,0.0136,0.0139,0.0187,0.0188,0.0185,0.0185,0.0185,0,0,-0.0156,-0.0148,-0.015,-0.0139,-0.0126,-0.0124,-0.0097,-0.0091,-0.0086,-0.0036,-0.002,0.0011,0.0059,0.0081,0.0096,0.0112,0.0153,0.0135,0.0132,0.0137,0.0187,0.0187,0.0188,0.0185,0.0185,0.0185,0,0,-0.0179,-0.0171,-0.0182,-0.0174,-0.0161,-0.0144,-0.0144,-0.0119,-0.0105,-0.0088,-0.0053,-0.0023,0.0023,0.0058,0.0082,0.0074,0.0122,0.0083,0.0065,0.011,0.0111,0.0112,0.0144,0.0149,0.0087,0.0087,0.0087,0,-0.0192,-0.0202,-0.0183,-0.0191,-0.0188,-0.0156,-0.0165,-0.0146,-0.0115,-0.0102,-0.0091,-0.0024,0.0014,0.0051,0.0046,0.0065,0.0094,0.0078,0.0104,0.0106,0.0109,0.0141,0.0147,0.0084,0.0084,0.0085,0.0085,0,-0.0221,-0.023,-0.0236,-0.0235,-0.0228,-0.0232,-0.0205,-0.0194,-0.0173,-0.0149,-0.0115,-0.0066,-0.0023,-0.0008,0.0017,0.0051,0.0066,0.0086,0.0116,0.0105,0.014,0.0147,0.008,0.0081,0.0082,0.0082,0,0,-0.0248,-0.0256,-0.0259,-0.027,-0.0254,-0.0253,-0.0243,-0.0223,-0.0216,-0.0178,-0.0161,-0.0108,-0.0078,-0.0049,-0.0009,0.0034,0.0067,0.0062,0.0066,0.009,0.0159,0.015,0.0157,0.0092,0.0093,0.0094,0.0172,0,-0.0278,-0.0309,-0.0299,-0.0323,-0.0335,-0.0306,-0.0301,-0.0276,-0.0245,-0.022,-0.0159,-0.0129,-0.0093,-0.0075,-0.0027,0.0045,0.0085,0.0043,0.0171,0.0174,0.0164,0.0165,0.0097,0.0178,0.018,0.0181,0.0182,0,-0.031,-0.0327,-0.036,-0.0372,-0.0373,-0.0381,-0.0365,-0.0355,-0.0305,-0.0279,-0.023,-0.0181,-0.0114,-0.0086,0.0038,0.0009,0.0076,0.0134,0.0138,0.016,0.0179,0.0196,0.0195,0.0194,0.0193,0.0192,0.0192,0,-0.0342,-0.0369,-0.0399,-0.0404,-0.0408,-0.0416,-0.0414,-0.0377,-0.0368,-0.0315,-0.0297,-0.021,-0.0169,-0.0068,0.0049,0.0046,0.0184,0.0198,0.0254,0.0254,0.0266,0.0265,0.0284,0.0284,0.0284,0.0284,0.0284,0,-0.0375,-0.0402,-0.0423,-0.044,-0.0476,-0.046,-0.0478,-0.0459,-0.0425,-0.041,-0.0334,-0.0294,-0.0161,-0.0065,0.004,0.0168,0.0182,0.0253,0.0277,0.0236,0.023,0.0271,0.0268,0.0287,0.0286,0.0285,0.0285,0,-0.0405,-0.0418,-0.0459,-0.0482,-0.0495,-0.052,-0.0533,-0.0537,-0.05,-0.0476,-0.0461,-0.0354,-0.0225,-0.0089,0.0077,0.015,0.0277,0.0318,0.0255,0.0274,0.0316,0.031,0.0387,0.0387,0.0387,0.0388,0.0388,0,-0.0422,-0.0446,-0.0496,-0.0528,-0.0545,-0.058,-0.0599,-0.0579,-0.0574,-0.0504,-0.049,-0.0372,-0.0285,-0.0054,0.0082,0.0276,0.0302,0.0354,0.0343,0.0313,0.0329,0.0322,0.0315,0.0388,0.0388,0.0389,0.0389,0,-0.0453,-0.0472,-0.0505,-0.0572,-0.0611,-0.0647,-0.067,-0.067,-0.063,-0.0601,-0.0494,-0.0367,-0.0226,-0.005,0.0094,0.0235,0.0314,0.0358,0.0358,0.0349,0.0316,0.033,0.0323,0.039,0.039,0.039,0.0389,0,-0.0473,-0.0507,-0.0553,-0.0607,-0.0661,-0.0693,-0.0703,-0.0679,-0.0661,-0.0572,-0.0537,-0.0369,-0.0271,-0.0071,0.0069,0.0199,0.0231,0.0262,0.0268,0.0268,0.0208,0.0147,0.0193,0,0,0,0,0,-0.0488,-0.0527,-0.0584,-0.0641,-0.0693,-0.0718,-0.0737,-0.0731,-0.0692,-0.0619,-0.0572,-0.0429,-0.0206,-0.0106,0.0025,0.0059,0.0234,0.0212,0.0268,0.0396,0.0395,0.0343,0,0,0,0,0,0,-0.0501,-0.0557,-0.0584,-0.0651,-0.0692,-0.074,-0.0751,-0.0727,-0.0674,-0.0617,-0.0492,-0.0411,-0.0193,-0.0277,0.0024,0.0064,0.0112,0.0323,0.0325,0.0397,0.0396,0.0395,0.0341,0,0,0,0,0]}]]